Regional Weather Roundup
Issued by NWS Green Bay, WI

Home | Current Version | Previous Version | Graphics & Text | Print | Product List | Glossary Off
Versions: 1 2 3 4 5 6 7 8 9 10 11 12 13 14 15 16 17 18 19 20 21 22 23 24 25 26 27 28 29 30 31 32 33 34 35 36 37 38 39 40 41 42 43 44 45 46 47 48 49 50

732
ASUS43 KGRB 291400
RWRGRB

NORTH-CENTRAL AND NORTHEAST WISCONSIN REGIONAL WEATHER ROUNDUP
NATIONAL WEATHER SERVICE GREEN BAY WI
900 AM CDT FRI APR 29 2016

WIZ005-009-010>012-018-019-291500-
NORTH CENTRAL WISCONSIN

CITY           SKY/WX    TMP DP  RH WIND       PRES   REMARKS
IRONWOOD       SUNNY     41  28  60 N5        30.15R
MANITOWISH WTR NOT AVBL
ARBOR VITAE    NOT AVBL
EAGLE RIVER    NOT AVBL
LAND O LAKES   NOT AVBL
RHINELANDER    CLOUDY    42  36  79 VRB6      30.15R
PHILLIPS       NOT AVBL
ANTIGO         NOT AVBL
TOMAHAWK       NOT AVBL
MERRILL        NOT AVBL
$$

WIZ013-073-291500-
NORTHEAST WISCONSIN

CITY           SKY/WX    TMP DP  RH WIND       PRES   REMARKS
IRON MOUNTAIN  CLOUDY    44  26  49 E6        30.14S
MARINETTE      CLOUDY    43  30  61 E13       30.14F
$$

WIZ017-030-035>037-045-291500-
CENTRAL WISCONSIN

CITY           SKY/WX    TMP DP  RH WIND       PRES   REMARKS
MEDFORD        NOT AVBL
WAUSAU         CLOUDY    44  36  73 NE7       30.12F
MOSINEE        CLOUDY    41  37  87 N9        30.14F
MARSHFIELD     CLOUDY    44  37  76 NE8       30.13S
WISC RAPIDS    CLOUDY    44  36  73 NE10      30.14F
STEVENS POINT  NOT AVBL
WAUPACA        NOT AVBL
SHAWANO        NOT AVBL
CLINTONVILLE   NOT AVBL
WAUTOMA        NOT AVBL
$$

WIZ038-039-048-051-291500-
FOX VALLEY

CITY           SKY/WX    TMP DP  RH WIND       PRES   REMARKS
NWS GREEN BAY  CLOUDY    45  35  68 NE14      30.13F
APPLETON       CLOUDY    43  32  65 N12       30.11S
OSHKOSH        CLOUDY    43  34  70 NE10      30.11F
FOND DU LAC    CLOUDY    43  35  73 NE10      30.11F
$$

WIZ022-050-052-291500-
EAST CENTRAL WISCONSIN

CITY           SKY/WX    TMP DP  RH WIND       PRES   REMARKS
EPHRAIM        NOT AVBL
STURGEON BAY   CLOUDY    43  32  65 N8        30.16S
MANITOWOC      NOT AVBL
SHEBOYGAN      CLOUDY    41  36  82 N7        30.12S
$$

LMZ563-521-522-541>543-291500-
LAKESHORE

STATION/POSITION TIME  TEMP    WIND        PRES    VSBY  WAVE
                       AIR SEA DIR/SP/G                  HT/PER
                 (UTC) (F)     (DEG/KT/KT) (MB)    (MI)  (FT/S)
SHEBOYGAN LKSHOR 1300   39      10/  9/ 11 1020.9R
KEWAUNEE LKSHORE 1300   41      20/  8/ 11 1019.4R
ALGOMA MARINA    1315           60/ 12/ 14   N/A
NORTHPORT PIER   1300   41      70/  8/ 10 1020.7R
N MID LAKE BUOY  1250   39 38   60/  4/  6 1020.9R         1
CHAMBERS ISLAND  1340   40      10/  8/ 10 1021.3R
MENOMINEE LKSHOR 1300   42      30/ 11/ 12 1019.9R
$$




USA.gov is the U.S. government's official web portal to all federal, state and local government web resources and services.